User: anonymous   Login
Location: Unspecified
(0.0000°N, 0.0000°E)
Time: 21:43:36
(UTC+00:00)
Language:

COSMOS 2437 - Orbit

View from above orbital plane
View from above orbital plane
View from above satellite
View from above satellite

Ground track
Ground track

The orbit data is extracted from the following two-line orbital elements,

1 32954U 08025B   17117.73669442 +.00000013 +00000-0 +22710-4 0  9996
2 32954 082.4988 271.9757 0020944 049.3075 310.9820 12.42690326405051
Epoch (UTC): 27 April 2017 17:40:50
Eccentricity: 0.0020944
inclination: 82.4988°
perigee height: 1479 km
apogee height: 1512 km
right ascension of ascending node: 271.9757°
argument of perigee: 49.3075°
revolutions per day: 12.42690326
mean anomaly at epoch: 310.9820°
orbit number at epoch: 40505

The dashed part of the orbit path shows where the satellite is in the earth's shadow,  

DLR